Location: *
(28.3744°N, 81.5492°W)
Time: 03:34:13
(UTC+00:00)

Cosmos 2123 Rocket - Pass Details

Date: 15 June 2025
Orbit: 959 x 992 km, 82.9° (Epoch: 11 July)

Event Time Altitude Azimuth Distance (km) Brightness Sun altitude
Exits shadow 03:25:15 48° 242° (WSW) 1,259 4.5 -30.6°
Maximum altitude 03:26:21 54° 277° (W) 1,176 4.5 -30.7°
Drops below altitude 10° 03:32:28 10° 354° (N) 2,732 7.1 -31.4°
Sets 03:35:03 0° 359° (N) 3,678 7.8 -31.7°
